Location: Bruderhein
(53.8035°N, 112.9265°W)
Time: 11:35:09
(UTC+00:00)

BEESAT - Visible Passes

Search period start: 02 April 2023 00:00
Search period end: 12 April 2023 00:00
Orbit: 698 x 704 km, 98.5° (Epoch: 01 April)

Date Brightness Start Highest point End Pass type
(mag) Time Alt. Az. Time Alt. Az. Time Alt. Az.
02 Apr ? 04:19:05 10° NNE 04:23:37 41° E 04:24:13 39° ESE visible
02 Apr ? 05:56:56 10° N 06:01:15 35° WNW 06:03:06 25° WSW visible
03 Apr ? 03:24:57 10° NE 03:27:46 15° E 03:28:25 15° E visible
03 Apr ? 05:01:20 10° NNE 05:06:09 90° NE 05:07:17 54° SSW visible
03 Apr ? 06:40:00 10° N 06:43:14 18° NW 06:46:09 11° W visible
04 Apr ? 04:06:19 10° NNE 04:10:38 33° E 04:11:27 30° ESE visible
04 Apr ? 05:43:55 10° N 05:48:27 43° WNW 05:50:20 29° WSW visible
05 Apr ? 03:12:51 10° ENE 03:14:39 12° E 03:15:38 11° E visible
05 Apr ? 04:48:26 10° NNE 04:53:14 71° ESE 04:54:30 48° S visible
05 Apr ? 06:26:50 10° N 06:30:29 22° NW 06:33:22 13° W visible
06 Apr ? 03:53:36 10° NE 03:57:35 26° E 03:58:41 24° ESE visible
06 Apr ? 05:30:55 10° N 05:35:35 54° WNW 05:37:32 32° SW visible
06 Apr ? 07:10:28 10° NNW 07:12:18 12° NW 07:14:08 10° WNW visible
07 Apr ? 04:35:33 10° NNE 04:40:16 56° ESE 04:41:42 40° SSE visible
07 Apr ? 06:13:42 10° N 06:17:42 27° WNW 06:20:34 15° WSW visible
08 Apr ? 03:40:58 10° NE 03:44:31 20° E 03:45:52 18° ESE visible
08 Apr ? 05:17:56 10° NNE 05:22:42 69° WNW 05:24:44 34° SW visible
08 Apr ? 06:57:00 10° NNW 06:59:35 15° NW 07:02:09 10° W visible
09 Apr ? 04:22:42 10° NNE 04:27:17 43° E 04:28:53 32° SE visible
09 Apr ? 06:00:36 10° N 06:04:52 33° WNW 06:07:45 18° WSW visible
10 Apr ? 03:28:27 10° NE 03:31:25 16° E 03:33:02 14° ESE visible
10 Apr ? 05:04:57 10° NNE 05:09:46 86° WNW 05:11:54 34° SSW visible
10 Apr ? 06:43:40 10° NNW 06:46:50 18° NW 06:49:57 10° W visible
11 Apr ? 04:09:53 10° NNE 04:14:14 34° E 04:16:03 25° SE visible
11 Apr ? 05:47:32 10° N 05:52:00 41° WNW 05:54:55 20° SW visible
